| time (UTC) | temp F | wind direction | speed MPH | gust MPH | rain 1hr in | rain 24hr in | rain mn in | humidity % | barometer mb |
| 20260902182515 | 98 | 270 | 3.0 | 7.0 | 0.00 | 0.00 | 0.00 | 33 | 1016.0 |
| 20260902181515 | 96 | 203 | 2.0 | 4.0 | 0.00 | 0.00 | 0.00 | 36 | 1016.0 |
| 20260902180516 | 96 | 113 | 2.0 | 5.0 | 0.00 | 0.00 | 0.00 | 35 | 1016.1 |
| 20260902175516 | 98 | 113 | 4.0 | 7.0 | 0.00 | 0.00 | 0.00 | 35 | 1016.2 |
| 20260902174516 | 97 | 113 | 4.0 | 7.0 | 0.00 | 0.00 | 0.00 | 37 | 1016.5 |
| 20260902173516 | 96 | 113 | 3.0 | 8.0 | 0.00 | 0.00 | 0.00 | 37 | 1016.7 |
| 20260902172515 | 95 | 180 | 4.0 | 6.0 | 0.00 | 0.00 | 0.00 | 38 | 1016.8 |
| 20260902171515 | 95 | 135 | 4.0 | 10.0 | 0.00 | 0.00 | 0.00 | 38 | 1017.1 |
| 20260902170516 | 95 | 203 | 4.0 | 8.0 | 0.00 | 0.00 | 0.00 | 40 | 1017.2 |
| 20260902165516 | 95 | 158 | 5.0 | 9.0 | 0.00 | 0.00 | 0.00 | 42 | 1017.2 |
| 20260902164515 | 94 | 203 | 3.0 | 7.0 | 0.00 | 0.00 | 0.00 | 45 | 1017.2 |
| 20260902163516 | 93 | 180 | 5.0 | 9.0 | 0.00 | 0.00 | 0.00 | 46 | 1017.3 |
| 20260902162516 | 92 | 180 | 4.0 | 7.0 | 0.00 | 0.00 | 0.00 | 48 | 1017.5 |
| 20260902161516 | 92 | 180 | 4.0 | 8.0 | 0.00 | 0.00 | 0.00 | 48 | 1017.4 |
| 20260902160515 | 91 | 225 | 4.0 | 9.0 | 0.00 | 0.00 | 0.00 | 50 | 1017.6 |
| 20260902155516 | 89 | 248 | 3.0 | 6.0 | 0.00 | 0.00 | 0.00 | 51 | 1017.5 |
| 20260902154515 | 89 | 248 | 4.0 | 9.0 | 0.00 | 0.00 | 0.00 | 54 | 1017.4 |
| 20260902153516 | 88 | 203 | 5.0 | 9.0 | 0.00 | 0.00 | 0.00 | 54 | 1017.4 |
| 20260902152515 | 86 | 225 | 5.0 | 7.0 | 0.00 | 0.00 | 0.00 | 56 | 1017.3 |
| 20260902151516 | 86 | 225 | 3.0 | 7.0 | 0.00 | 0.00 | 0.00 | 57 | 1017.5 |
| 20260902150516 | 84 | 203 | 6.0 | 12.0 | 0.00 | 0.00 | 0.00 | 59 | 1017.3 |
| 20260902145516 | 84 | 203 | 4.0 | 8.0 | 0.00 | 0.00 | 0.00 | 61 | 1017.4 |
| 20260902144515 | 83 | 225 | 3.0 | 8.0 | 0.00 | 0.00 | 0.00 | 62 | 1017.4 |
| 20260902143516 | 82 | 225 | 3.0 | 7.0 | 0.00 | 0.00 | 0.00 | 63 | 1017.3 |
| 20260902142515 | 80 | 203 | 3.0 | 7.0 | 0.00 | 0.00 | 0.00 | 63 | 1017.2 |
| 20260902141516 | 80 | 203 | 3.0 | 6.0 | 0.00 | 0.00 | 0.00 | 65 | 1017.2 |
| 20260902140516 | 79 | 225 | 3.0 | 7.0 | 0.00 | 0.00 | 0.00 | 66 | 1017.2 |
| 20260902135515 | 77 | 225 | 1.0 | 2.0 | 0.00 | 0.00 | 0.00 | 67 | 1017.2 |
| 20260902134516 | 76 | 248 | 1.0 | 2.0 | 0.00 | 0.00 | 0.00 | 67 | 1017.1 |
| 20260902133515 | 76 | 0.0 | 0.0 | 0.00 | 0.00 | 0.00 | 68 | 1017.1 | |
| 20260902132515 | 76 | 0.0 | 2.0 | 0.00 | 0.00 | 0.00 | 68 | 1017.0 | |
| 20260902131516 | 76 | 0.0 | 1.0 | 0.00 | 0.00 | 0.00 | 68 | 1017.1 | |
| 20260902130515 | 75 | 270 | 1.0 | 2.0 | 0.00 | 0.00 | 0.00 | 67 | 1017.0 |
| 20260902125515 | 75 | 248 | 1.0 | 3.0 | 0.00 | 0.00 | 0.00 | 68 | 1016.8 |
| 20260902124515 | 74 | 0.0 | 1.0 | 0.00 | 0.00 | 0.00 | 68 | 1016.9 | |
| 20260902123516 | 74 | 0.0 | 0.0 | 0.00 | 0.00 | 0.00 | 67 | 1016.8 | |
| 20260902122515 | 75 | 135 | 1.0 | 2.0 | 0.00 | 0.00 | 0.00 | 67 | 1016.9 |
| 20260902121516 | 75 | 113 | 1.0 | 2.0 | 0.00 | 0.00 | 0.00 | 66 | 1016.8 |
| 20260902120516 | 74 | 113 | 1.0 | 2.0 | 0.00 | 0.00 | 0.00 | 68 | 1016.8 |
| 20260902115516 | 75 | 0.0 | 2.0 | 0.00 | 0.00 | 0.00 | 66 | 1016.6 | |
| 20260902114516 | 76 | 203 | 3.0 | 5.0 | 0.00 | 0.00 | 0.00 | 65 | 1016.6 |
| 20260902113515 | 75 | 135 | 1.0 | 4.0 | 0.00 | 0.00 | 0.00 | 66 | 1016.6 |
| 20260902112516 | 75 | 0.0 | 0.0 | 0.00 | 0.00 | 0.00 | 65 | 1016.6 | |
| 20260902111516 | 74 | 0.0 | 0.0 | 0.00 | 0.00 | 0.00 | 66 | 1016.5 | |
| 20260902110516 | 74 | 0.0 | 0.0 | 0.00 | 0.00 | 0.00 | 65 | 1016.6 | |
| 20260902105516 | 76 | 113 | 1.0 | 2.0 | 0.00 | 0.00 | 0.00 | 63 | 1016.5 |
| 20260902104519 | 76 | 135 | 1.0 | 2.0 | 0.00 | 0.00 | 0.00 | 63 | 1016.4 |
| 20260902103519 | 76 | 0.0 | 2.0 | 0.00 | 0.00 | 0.00 | 63 | 1016.3 | |
| 20260902102519 | 76 | 0.0 | 1.0 | 0.00 | 0.00 | 0.00 | 62 | 1016.4 | |
| 20260902101516 | 76 | 113 | 1.0 | 3.0 | 0.00 | 0.00 | 0.00 | 61 | 1016.3 |
| 20260902100515 | 76 | 135 | 1.0 | 3.0 | 0.00 | 0.00 | 0.00 | 63 | 1016.2 |
| 20260902095516 | 75 | 0.0 | 2.0 | 0.00 | 0.00 | 0.00 | 64 | 1016.2 | |
| 20260902094516 | 76 | 0.0 | 2.0 | 0.00 | 0.00 | 0.00 | 64 | 1016.2 | |
| 20260902093516 | 75 | 0.0 | 0.0 | 0.00 | 0.00 | 0.00 | 66 | 1016.0 | |
| 20260902092516 | 76 | 0.0 | 2.0 | 0.00 | 0.00 | 0.00 | 63 | 1016.1 | |
| 20260902091516 | 77 | 0.0 | 2.0 | 0.00 | 0.00 | 0.00 | 60 | 1016.1 | |
| 20260902090516 | 77 | 270 | 1.0 | 2.0 | 0.00 | 0.00 | 0.00 | 62 | 1016.1 |
| 20260902085515 | 76 | 270 | 2.0 | 3.0 | 0.00 | 0.00 | 0.00 | 61 | 1015.9 |
| 20260902084516 | 77 | 270 | 2.0 | 4.0 | 0.00 | 0.00 | 0.00 | 60 | 1016.2 |
| 20260902083516 | 78 | 225 | 2.0 | 3.0 | 0.00 | 0.00 | 0.00 | 59 | 1016.1 |
| 20260902082516 | 78 | 203 | 2.0 | 3.0 | 0.00 | 0.00 | 0.00 | 58 | 1016.2 |
| 20260902081516 | 78 | 225 | 2.0 | 3.0 | 0.00 | 0.00 | 0.00 | 58 | 1016.2 |
| 20260902080516 | 78 | 180 | 2.0 | 2.0 | 0.00 | 0.00 | 0.00 | 59 | 1016.2 |
| 20260902075516 | 78 | 158 | 2.0 | 4.0 | 0.00 | 0.00 | 0.00 | 59 | 1016.2 |
| 20260902074516 | 78 | 180 | 1.0 | 2.0 | 0.00 | 0.00 | 0.00 | 59 | 1016.1 |
| 20260902073516 | 79 | 203 | 2.0 | 2.0 | 0.00 | 0.00 | 0.00 | 57 | 1016.1 |
| 20260902072516 | 79 | 225 | 1.0 | 2.0 | 0.00 | 0.00 | 0.00 | 57 | 1016.2 |
| 20260902071516 | 79 | 180 | 2.0 | 3.0 | 0.00 | 0.00 | 0.00 | 57 | 1016.3 |
| 20260902070516 | 80 | 180 | 2.0 | 3.0 | 0.00 | 0.00 | 0.00 | 56 | 1016.2 |
| 20260902065516 | 80 | 180 | 2.0 | 2.0 | 0.00 | 0.00 | 0.00 | 55 | 1016.3 |
| 20260902064516 | 81 | 180 | 1.0 | 2.0 | 0.00 | 0.00 | 0.00 | 55 | 1016.3 |
| 20260902063516 | 81 | 180 | 2.0 | 4.0 | 0.00 | 0.00 | 0.00 | 54 | 1016.2 |
| 20260902062516 | 82 | 158 | 3.0 | 5.0 | 0.00 | 0.00 | 0.00 | 53 | 1016.2 |
| 20260902061516 | 82 | 158 | 3.0 | 5.0 | 0.00 | 0.00 | 0.00 | 54 | 1016.3 |
| 20260902060516 | 82 | 158 | 3.0 | 5.0 | 0.00 | 0.00 | 0.00 | 54 | 1016.3 |
| 20260902055515 | 82 | 158 | 3.0 | 4.0 | 0.00 | 0.00 | 0.00 | 54 | 1016.3 |
| 20260902054516 | 82 | 158 | 3.0 | 5.0 | 0.00 | 0.00 | 0.00 | 53 | 1016.1 |
| 20260902053515 | 83 | 158 | 4.0 | 6.0 | 0.00 | 0.00 | 0.00 | 51 | 1016.1 |
| 20260902052516 | 84 | 135 | 5.0 | 9.0 | 0.00 | 0.00 | 0.00 | 50 | 1016.2 |
| 20260902051516 | 84 | 135 | 5.0 | 8.0 | 0.00 | 0.00 | 0.00 | 50 | 1016.0 |
| 20260902050516 | 85 | 135 | 5.0 | 8.0 | 0.00 | 0.00 | 0.00 | 49 | 1016.0 |
| 20260902045516 | 85 | 135 | 5.0 | 10.0 | 0.00 | 0.00 | 0.00 | 48 | 1016.2 |
| 20260902044516 | 86 | 135 | 7.0 | 11.0 | 0.00 | 0.00 | 0.00 | 47 | 1016.0 |
| 20260902043516 | 86 | 135 | 9.0 | 13.0 | 0.00 | 0.00 | 0.00 | 47 | 1016.1 |
| 20260902042516 | 86 | 135 | 9.0 | 16.0 | 0.00 | 0.00 | 0.00 | 47 | 1016.0 |
| 20260902041516 | 86 | 135 | 9.0 | 12.0 | 0.00 | 0.00 | 0.00 | 46 | 1015.9 |
| 20260902040516 | 85 | 135 | 5.0 | 9.0 | 0.00 | 0.00 | 0.00 | 45 | 1015.7 |
| 20260902035516 | 85 | 135 | 4.0 | 8.0 | 0.00 | 0.00 | 0.00 | 44 | 1015.5 |
| 20260902034516 | 85 | 135 | 4.0 | 7.0 | 0.00 | 0.00 | 0.00 | 43 | 1015.3 |
| 20260902033516 | 85 | 113 | 5.0 | 7.0 | 0.00 | 0.00 | 0.00 | 44 | 1015.2 |
| 20260902032515 | 85 | 113 | 5.0 | 7.0 | 0.00 | 0.00 | 0.00 | 43 | 1015.1 |
| 20260902031516 | 86 | 135 | 4.0 | 6.0 | 0.00 | 0.00 | 0.00 | 43 | 1014.8 |
| 20260902030516 | 85 | 135 | 4.0 | 7.0 | 0.00 | 0.00 | 0.00 | 42 | 1014.6 |
| 20260902025516 | 86 | 135 | 3.0 | 4.0 | 0.00 | 0.00 | 0.00 | 42 | 1014.7 |
| 20260902024516 | 87 | 135 | 4.0 | 5.0 | 0.00 | 0.00 | 0.00 | 41 | 1014.5 |
| 20260902023516 | 87 | 113 | 5.0 | 7.0 | 0.00 | 0.00 | 0.00 | 40 | 1014.3 |
| 20260902022516 | 88 | 113 | 5.0 | 7.0 | 0.00 | 0.00 | 0.00 | 40 | 1014.1 |
| 20260902021516 | 88 | 113 | 4.0 | 6.0 | 0.00 | 0.00 | 0.00 | 40 | 1013.9 |
| 20260902020516 | 88 | 113 | 2.0 | 4.0 | 0.00 | 0.00 | 0.00 | 40 | 1013.7 |
| 20260902015516 | 89 | 113 | 2.0 | 3.0 | 0.00 | 0.00 | 0.00 | 40 | 1013.8 |
| 20260902014516 | 89 | 113 | 3.0 | 7.0 | 0.00 | 0.00 | 0.00 | 39 | 1013.5 |
| 20260902013516 | 89 | 90 | 2.0 | 2.0 | 0.00 | 0.00 | 0.00 | 39 | 1013.4 |
| 20260902012516 | 90 | 90 | 2.0 | 2.0 | 0.00 | 0.00 | 0.00 | 38 | 1013.4 |
| 20260902011516 | 92 | 90 | 2.0 | 3.0 | 0.00 | 0.00 | 0.00 | 35 | 1013.4 |
| 20260902010516 | 93 | 113 | 2.0 | 4.0 | 0.00 | 0.00 | 0.00 | 34 | 1013.3 |
| 20260902005516 | 93 | 113 | 3.0 | 4.0 | 0.00 | 0.00 | 0.00 | 34 | 1013.3 |
| 20260902004516 | 94 | 113 | 3.0 | 7.0 | 0.00 | 0.00 | 0.00 | 34 | 1013.6 |
| 20260902003516 | 95 | 90 | 2.0 | 7.0 | 0.00 | 0.00 | 0.00 | 34 | 1013.6 |
| 20260902002516 | 96 | 113 | 3.0 | 7.0 | 0.00 | 0.00 | 0.00 | 33 | 1013.7 |
| 20260902001516 | 96 | 135 | 4.0 | 8.0 | 0.00 | 0.00 | 0.00 | 33 | 1013.8 |
| 20260902000516 | 96 | 113 | 2.0 | 4.0 | 0.00 | 0.00 | 0.00 | 32 | 1013.7 |
| 20260901235516 | 96 | 90 | 4.0 | 8.0 | 0.00 | 0.00 | 0.00 | 32 | 1013.7 |
| 20260901234516 | 96 | 68 | 6.0 | 11.0 | 0.00 | 0.00 | 0.00 | 31 | 1013.6 |
| 20260901233516 | 97 | 90 | 3.0 | 8.0 | 0.00 | 0.00 | 0.00 | 31 | 1013.5 |
| 20260901232516 | 97 | 113 | 5.0 | 10.0 | 0.00 | 0.00 | 0.00 | 31 | 1013.6 |
| 20260901231516 | 97 | 68 | 4.0 | 9.0 | 0.00 | 0.00 | 0.00 | 31 | 1013.7 |
| 20260901230516 | 98 | 68 | 4.0 | 9.0 | 0.00 | 0.00 | 0.00 | 31 | 1013.7 |
| 20260901225516 | 98 | 90 | 6.0 | 11.0 | 0.00 | 0.00 | 0.00 | 30 | 1013.6 |
| 20260901224516 | 98 | 113 | 4.0 | 10.0 | 0.00 | 0.00 | 0.00 | 31 | 1013.7 |
| 20260901223516 | 98 | 90 | 6.0 | 13.0 | 0.00 | 0.00 | 0.00 | 31 | 1013.7 |
| 20260901222516 | 98 | 113 | 6.0 | 11.0 | 0.00 | 0.00 | 0.00 | 30 | 1013.8 |
| 20260901221519 | 98 | 90 | 5.0 | 11.0 | 0.00 | 0.00 | 0.00 | 31 | 1013.9 |
| 20260901220519 | 98 | 90 | 4.0 | 10.0 | 0.00 | 0.00 | 0.00 | 31 | 1014.0 |
| 20260901215519 | 98 | 135 | 4.0 | 10.0 | 0.00 | 0.00 | 0.00 | 31 | 1014.0 |
| 20260901214516 | 98 | 135 | 9.0 | 12.0 | 0.00 | 0.00 | 0.00 | 31 | 1014.1 |
| 20260901213516 | 99 | 135 | 6.0 | 11.0 | 0.00 | 0.00 | 0.00 | 31 | 1014.1 |
| 20260901212516 | 98 | 135 | 2.0 | 7.0 | 0.00 | 0.00 | 0.00 | 31 | 1014.2 |
| 20260901211516 | 98 | 135 | 6.0 | 11.0 | 0.00 | 0.00 | 0.00 | 31 | 1014.5 |
| 20260901210516 | 99 | 90 | 5.0 | 11.0 | 0.00 | 0.00 | 0.00 | 31 | 1014.7 |
| 20260901205516 | 98 | 68 | 4.0 | 9.0 | 0.00 | 0.00 | 0.00 | 31 | 1014.8 |
| 20260901204516 | 98 | 90 | 6.0 | 13.0 | 0.00 | 0.00 | 0.00 | 31 | 1015.0 |
| 20260901203516 | 98 | 135 | 5.0 | 13.0 | 0.00 | 0.00 | 0.00 | 31 | 1015.2 |
| 20260901202516 | 98 | 90 | 4.0 | 9.0 | 0.00 | 0.00 | 0.00 | 31 | 1015.4 |
| 20260901201516 | 99 | 68 | 4.0 | 10.0 | 0.00 | 0.00 | 0.00 | 32 | 1015.7 |
| 20260901200516 | 99 | 90 | 5.0 | 9.0 | 0.00 | 0.00 | 0.00 | 33 | 1015.8 |
| 20260901195516 | 99 | 90 | 3.0 | 8.0 | 0.00 | 0.00 | 0.00 | 32 | 1016.0 |
| 20260901194516 | 98 | 90 | 3.0 | 9.0 | 0.00 | 0.00 | 0.00 | 33 | 1016.1 |
| 20260901193516 | 98 | 135 | 4.0 | 8.0 | 0.00 | 0.00 | 0.00 | 32 | 1016.0 |
| 20260901192516 | 94 | 135 | 4.0 | 9.0 | 0.00 | 0.00 | 0.00 | 35 | 1016.1 |
| 20260901191516 | 96 | 113 | 3.0 | 6.0 | 0.00 | 0.00 | 0.00 | 33 | 1016.4 |
| 20260901190516 | 96 | 135 | 2.0 | 4.0 | 0.00 | 0.00 | 0.00 | 35 | 1016.4 |
| 20260901185516 | 95 | 90 | 5.0 | 10.0 | 0.00 | 0.00 | 0.00 | 35 | 1016.5 |
| 20260901184516 | 97 | 135 | 4.0 | 9.0 | 0.00 | 0.00 | 0.00 | 35 | 1016.8 |
| 20260901183516 | 96 | 90 | 5.0 | 9.0 | 0.00 | 0.00 | 0.00 | 36 | 1016.9 |